Lid_Strength_Index
-1 0 0 2 9 10 9 8 6 7 7 4 4 5 6 5 8 11 1 0 -0 -0 -1 -1 -2 -1 -1 -1 -1 -1 -1 -1 -1 -1 -1 -1 -1 -1 -1 -1 -1 -1 -2 -2 -2 -2 -2 -2 -2
-1 0 1 5 12 15 10 6 7 6 5 4 4 4 5 6 3 3 2 0 -0 -0 -1 -1 -1 -1 -1 -1 -1 -1 -1 -1 -1 -1 -1 -1 -1 -1 -1 -1 -1 -1 -1 -1 -1 -2 -2 -2 -2
-0 0 4 8 12 10 9 7 6 5 4 4 5 4 4 5 3 2 0 -0 -0 -0 -1 -1 -1 -1 -1 -1 -1 -1 -1 -1 -1 -1 -1 -1 -1 -1 -1 -1 -1 -1 -1 -1 -1 -1 -1 -2 -2
1 2 4 9 10 7 7 5 5 5 4 4 4 6 3 2 2 1 0 -0 0 -0 -1 -1 -1 -1 -1 -1 -1 -1 -1 -1 -1 -1 -1 -1 -1 -1 -1 -1 -1 -1 -1 -1 -1 -1 -1 -1 -1
2 3 9 10 9 7 6 5 5 5 5 5 4 6 5 2 1 0 -0 -0 0 0 -0 -1 -1 -1 -1 -1 -1 -1 -1 -1 -1 -1 -1 -1 -1 -1 -1 -1 -2 -2 -2 -2 -1 -1 -2 -1 -1
4 4 9 11 10 7 5 5 6 5 4 4 5 5 5 1 1 1 -0 -0 -0 0 -1 -1 -1 -1 -1 -1 -1 -1 -1 -1 -1 -1 -1 -1 -1 -1 -1 -1 -2 -2 -2 -2 -3 -2 -3 -2 -1
5 7 8 8 8 8 6 4 6 5 5 5 4 6 4 2 1 0 0 -0 -0 -0 -0 -1 -1 -1 -1 -1 -1 -1 -1 -1 -1 -1 -1 -1 -1 -2 -1 -1 -1 -2 -2 -2 -2 -2 -3 -2 -1
4 5 7 7 9 8 5 5 4 5 6 3 3 6 6 2 1 0 0 0 0 0 -0 -0 -1 -1 -0 -1 -1 -1 -1 -1 -1 -1 -1 -1 -2 -2 0 -1 -1 -2 -2 -2 -2 -2 -3 -3 -2
3 7 9 8 7 7 4 7 4 4 5 4 3 3 2 1 1 1 2 2 2 1 0 -0 -0 -0 -1 -1 -1 -1 -1 -1 -1 -1 -1 -2 -2 -1 -1 -1 0 -2 -3 -2 -2 -2 -3 -3 -3
5 6 7 5 5 6 6 6 5 6 6 5 4 3 2 2 3 3 3 3 2 3 1 -0 -0 -0 -1 -1 -1 -1 -1 -1 -1 -1 -1 -0 -1 -1 -1 -2 -1 -1 -2 -1 -2 -2 -2 -2 -0
4 7 5 5 4 4 6 6 5 6 7 5 6 4 3 3 3 4 3 3 3 2 1 0 -0 -1 -0 -0 -1 -1 -1 -1 -2 -2 -1 -2 -1 -1 -1 -1 -0 -0 -1 -1 -1 -1 -1 -0 -0
6 4 4 4 4 5 6 5 6 4 5 4 3 3 3 4 4 4 4 3 3 1 1 0 -0 -0 -1 -1 -1 -2 -1 -1 -1 -1 -1 -1 -0 -0 -0 -0 -0 -1 -0 1 1 0 -0 -0 -0
5 5 4 4 4 5 5 6 8 5 4 3 3 3 4 3 3 2 2 2 1 2 1 0 -0 -0 -0 -1 -1 -1 -0 -0 -1 -0 -1 -1 -1 -0 -0 -0 -0 -0 -1 1 1 1 -0 -0 -0
4 5 4 5 5 4 6 6 5 4 3 4 3 4 3 3 3 2 2 2 2 1 1 0 -0 -0 -1 -0 -0 -0 -1 -2 -1 -1 0 -1 -1 -1 -0 -0 -0 -0 -0 -1 -0 -0 0 0 0
4 6 5 5 5 7 5 7 7 4 4 4 4 4 3 3 2 3 2 2 1 1 0 0 -0 -0 -0 -0 -0 -0 -1 -1 -0 -1 0 -1 -1 -1 -1 -0 0 -0 -0 -1 -1 -0 -0 0 -0
6 6 9 6 5 5 5 10 6 4 4 5 4 4 4 3 3 2 2 1 1 1 1 0 0 -0 -0 -0 -0 -0 -0 -1 -0 -1 -1 -1 -1 -1 -0 -0 -0 -1 -1 -0 -0 0 1 1 1
7 10 10 7 5 6 6 9 6 4 5 5 5 5 4 4 3 2 2 1 1 1 1 1 0 0 0 -0 -0 -0 -1 -0 -1 -1 -1 -1 -1 -0 -0 -0 -1 -1 -0 -0 0 0 1 1 1
9 9 9 8 7 6 7 7 6 5 5 5 5 6 4 4 4 2 2 1 1 1 0 0 0 0 -0 -0 -0 -0 -0 -0 -1 -1 -0 -1 -1 -1 -1 -0 -0 -0 0 0 0 1 0 1 1
6 7 8 7 5 6 7 7 6 6 6 6 5 5 4 4 3 2 2 1 1 1 1 1 1 0 0 1 1 1 1 0 0 -0 -1 -1 -1 -1 -1 -0 -0 -0 0 1 0 1 1 1 1
6 8 8 7 6 6 7 10 8 7 8 5 5 6 5 4 3 3 2 1 1 1 1 1 1 0 0 0 0 0 0 0 -0 -1 -1 -1 -2 -2 -1 -0 0 -0 0 0 0 1 2 1 1
7 7 8 8 7 7 10 12 11 8 7 7 5 4 4 4 4 3 2 2 1 1 1 1 0 0 0 -0 -0 0 -0 0 1 0 0 -0 -2 -1 -1 -1 -0 -0 -0 1 1 1 1 3 1
8 6 6 8 9 15 9 16 12 10 9 8 6 5 4 4 3 3 2 2 2 1 0 0 0 0 -0 -0 0 1 2 2 1 1 0 -0 -1 -1 -1 -1 -1 -0 -0 0 0 0 1 1 3
7 5 7 8 10 11 12 13 11 9 10 9 6 5 4 3 3 3 2 2 1 1 1 0 0 0 0 -0 0 1 1 1 0 0 0 0 -0 -1 -1 -1 -1 -0 -0 -0 0 0 1 1 2
5 7 7 8 9 17 13 12 15 11 10 9 6 5 4 3 3 2 2 1 1 1 1 0 1 1 -0 -0 0 1 1 1 1 1 1 1 0 0 -0 -1 -1 -1 -0 0 0 0 0 1 1
6 7 11 14 14 15 10 13 12 8 7 6 6 5 4 3 3 3 3 2 2 1 1 1 1 1 0 0 0 0 1 1 1 1 1 1 1 1 0 -0 -0 -0 -0 -0 -0 0 0 1 1
7 7 12 16 13 13 11 14 13 6 5 5 4 4 4 3 3 3 2 2 2 1 1 1 1 1 0 0 0 0 0 0 0 0 1 1 1 0 -0 -0 -0 -0 -0 -0 -0 0 0 0 1
7 8 6 9 10 13 12 13 8 6 6 5 5 4 4 3 3 3 2 2 2 1 1 1 1 1 0 0 0 0 -0 0 0 0 -0 0 -0 -0 -0 -0 -0 -0 -0 -0 -0 0 1 0 1
6 6 9 9 13 14 14 14 13 9 7 6 6 5 4 3 3 3 2 2 1 1 1 1 0 1 0 0 0 0 0 -0 0 -0 0 0 -0 -0 -0 -0 -0 -0 -0 -0 0 0 0 1 1
7 8 7 8 10 13 14 13 7 8 7 6 5 5 4 4 3 3 2 2 1 1 1 1 1 1 1 0 0 0 0 0 -0 0 -0 -0 -0 -0 0 0 0 0 0 0 0 0 1 1 1
6 7 7 11 12 10 11 15 6 6 6 5 5 4 4 3 3 2 2 2 2 1 1 1 1 2 1 1 0 0 -0 0 0 0 0 -0 0 -0 -0 -0 0 0 0 0 1 1 1 2 2